This is the latest recevied weather packets stored in our database for station/object KC3DGM. If no packets are shown the sender has not sent any weather packets the latest 10 day(s).
| Time | Temp. | Humidity | Pressure | Rain* | Wind** | Luminosity | Snow |
|---|---|---|---|---|---|---|---|
| 1777921011 | 22.22° C | 43% | 977.8 hPa | 0 mm | - | 553 W/m² | - |
| 1777920708 | 22.22° C | 43% | 978.1 hPa | 0 mm | - | 540 W/m² | - |
| 1777920404 | 21.67° C | 43% | 978.5 hPa | 0 mm | - | 629 W/m² | - |
| 1777920099 | 21.67° C | 45% | 978.3 hPa | 0 mm | - | 657 W/m² | - |
| 1777919796 | 22.22° C | 43% | 978.2 hPa | 0 mm | - | 640 W/m² | - |
| 1777919494 | 21.67° C | 45% | 978.1 hPa | 0 mm | - | 580 W/m² | - |
| 1777919191 | 21.67° C | 49% | 978.2 hPa | 0 mm | - | 547 W/m² | - |
| 1777918889 | 22.22° C | 44% | 978.2 hPa | 0 mm | - | 551 W/m² | - |
| 1777918586 | 21.67° C | 45% | 978 hPa | 0 mm | - | 553 W/m² | - |
| 1777918283 | 22.22° C | 45% | 978.4 hPa | 0 mm | - | 653 W/m² | - |
| 1777917983 | 21.67° C | 47% | 978.2 hPa | 0 mm | - | 704 W/m² | - |
| 1777917681 | 21.11° C | 47% | 978.5 hPa | 0 mm | - | 695 W/m² | - |
| 1777917378 | 21.67° C | 51% | 978.6 hPa | 0 mm | - | 703 W/m² | - |
| 1777917074 | 21.67° C | 52% | 978.4 hPa | 0 mm | - | 714 W/m² | - |
| 1777916773 | 21.67° C | 49% | 978.5 hPa | 0 mm | - | 727 W/m² | - |
| 1777916469 | 21.67° C | 51% | 978.7 hPa | 0 mm | - | 742 W/m² | - |
| 1777916166 | 21.11° C | 50% | 978.8 hPa | 0 mm | - | 706 W/m² | - |
| 1777915864 | 21.11° C | 49% | 978.6 hPa | 0 mm | - | 704 W/m² | - |
| 1777915560 | 21.11° C | 49% | 978.6 hPa | 0 mm | - | 683 W/m² | - |
| 1777915256 | 20.56° C | 50% | 978.9 hPa | 0 mm | - | 613 W/m² | - |
| 1777914953 | 20.56° C | 49% | 978.8 hPa | 0 mm | - | 592 W/m² | - |
| 1777914650 | 20.56° C | 51% | 979.2 hPa | 0 mm | - | 621 W/m² | - |
| 1777914346 | 21.11° C | 52% | 979.1 hPa | 0 mm | - | 730 W/m² | - |
| 1777914044 | 20.56° C | 50% | 979 hPa | 0 mm | - | 744 W/m² | - |
| 1777913739 | 20.56° C | 51% | 979.1 hPa | 0 mm | - | 747 W/m² | - |
* Rain latest hour (hover to see other rain measurements)
** Current wind speed in m/s (hover to see current wind gust speed)